Location: Molveno
(46.1500°N, 10.9667°E)
Time: 01:04:59
(UTC+00:00)

Cosmos 1315 Rocket - Pass Details

Date: 05 July 2020
Orbit: 530 x 568 km, 81.2° (Epoch: 11 August)

Event Time Altitude Azimuth Distance (km) Brightness Sun altitude
Rises 20:45:59 0° 352° (N) 2,753 7.6 -12.7°
Reaches altitude 10° 20:48:11 10° 357° (N) 1,858 6.4 -13.0°
Maximum altitude 20:52:14 58° 76° (ENE) 664 3.1 -13.4°
Enters shadow 20:54:40 23° 149° (SSE) 1,238 4.0 -13.6°
